FW0810 Weather Reports


time (UTC)temp
C
wind
direction
speed
KPH
gust
KPH
rain 1hr
cm
rain 24hr
cm
rain mn
cm
humidity
%
barometer
mb
20260903144855 35 274 1.6 12.9 0.00 0.00 0.00 31 1020.0
20260903143850 35 287 0.0 8.0 0.00 0.00 0.00 31 1020.0
20260903143349 35 271 0.0 8.0 0.00 0.00 0.00 31 1019.9
20260903142849 35 129 0.0 3.2 0.00 0.00 0.00 30 1019.8
20260903142348 35 119 0.0 3.2 0.00 0.00 0.00 31 1019.9
20260903141849 35 338 0.0 4.8 0.00 0.00 0.00 31 1019.9
20260903141351 35 325 0.0 4.8 0.00 0.00 0.00 31 1020.0
20260903140349 34 285 0.0 8.0 0.00 0.00 0.00 31 1019.9
20260903135851 34 131 0.0 6.4 0.00 0.00 0.00 31 1020.0
20260903134349 35 309 0.0 1.6 0.00 0.00 0.00 32 1020.3
20260903133850 35 268 0.0 11.3 0.00 0.00 0.00 30 1020.4
20260903132851 35 60 0.0 4.8 0.00 0.00 0.00 30 1020.4
20260903130850 34 115 0.0 8.0 0.00 0.00 0.00 31 1020.3
20260903130349 34 320 0.0 8.0 0.00 0.00 0.00 31 1020.3
20260903125348 34 314 0.0 4.8 0.00 0.00 0.00 32 1020.4
20260903124849 34 349 1.6 9.7 0.00 0.00 0.00 32 1020.4
20260903124349 34 319 3.2 12.9 0.00 0.00 0.00 32 1020.4
20260903123349 34 248 0.0 6.4 0.00 0.00 0.00 34 1020.5
20260903122849 33 358 0.0 8.0 0.00 0.00 0.00 33 1020.5
20260903122346 33 4 0.0 8.0 0.00 0.00 0.00 34 1020.5
20260903121847 33 19 0.0 8.0 0.00 0.00 0.00 34 1020.6
20260903121350 33 295 0.0 4.8 0.00 0.00 0.00 34 1020.6
20260903115844 33 340 0.0 4.8 0.00 0.00 0.00 35 1020.7
20260903114828 33 42 0.0 3.2 0.00 0.00 0.00 36 1020.9
20260903114326 33 176 0.0 4.8 0.00 0.00 0.00 38 1021.0
20260903113839 33 328 0.0 4.8 0.00 0.00 0.00 36 1020.9
20260903113326 33 359 0.0 6.4 0.00 0.00 0.00 36 1021.0
20260903112824 33 133 0.0 6.4 0.00 0.00 0.00 37 1021.0
20260903112326 33 136 0.0 6.4 0.00 0.00 0.00 38 1021.1
20260903111825 33 59 0.0 4.8 0.00 0.00 0.00 41 1021.0
20260903111324 32 60 0.0 4.8 0.00 0.00 0.00 40 1021.1
20260903110824 32 345 0.0 6.4 0.00 0.00 0.00 40 1021.1
20260903110324 32 137 0.0 6.4 0.00 0.00 0.00 40 1021.3
20260903105824 32 188 0.0 3.2 0.00 0.00 0.00 43 1021.2
20260903105325 32 169 0.0 8.0 0.00 0.00 0.00 42 1021.4
20260903104824 32 324 0.0 8.0 0.00 0.00 0.00 43 1021.4
20260903104326 32 357 0.0 1.6 0.00 0.00 0.00 44 1021.4
20260903103824 32 357 0.0 8.0 0.00 0.00 0.00 44 1021.5
20260903102822 32 132 0.0 8.0 0.00 0.00 0.00 45 1021.5
20260903101312 31 223 0.0 4.8 0.00 0.00 0.00 46 1021.7
20260903100805 31 241 0.0 4.8 0.00 0.00 0.00 47 1021.7
20260903100258 31 188 0.0 1.6 0.00 0.00 0.00 48 1021.8
20260903095752 31 269 0.0 1.6 0.00 0.00 0.00 49 1021.9
20260903095246 31 303 0.0 6.4 0.00 0.00 0.00 48 1021.9
20260903094741 31 300 1.6 8.0 0.00 0.00 0.00 49 1022.0
20260903094236 31 321 0.0 8.0 0.00 0.00 0.00 51 1022.0
20260903093742 30 123 0.0 4.8 0.00 0.00 0.00 52 1022.0
20260903092716 30 180 1.6 8.0 0.00 0.00 0.00 55 1022.2
20260903092210 30 97 0.0 4.8 0.00 0.00 0.00 56 1022.2
20260903091213 30 68 0.0 4.8 0.00 0.00 0.00 56 1022.2
20260903090652 29 141 0.0 4.8 0.00 0.00 0.00 57 1022.1
20260903090159 29 141 0.0 4.8 0.00 0.00 0.00 57 1022.2
20260903085642 29 189 0.0 4.8 0.00 0.00 0.00 59 1022.2
20260903085133 29 193 0.0 6.4 0.00 0.00 0.00 60 1022.2
20260903084627 28 136 0.0 6.4 0.00 0.00 0.00 60 1022.2
20260903084122 28 167 0.0 3.2 0.00 0.00 0.00 60 1022.2
20260903083618 28 205 0.0 4.8 0.00 0.00 0.00 61 1022.2
20260903083119 28 269 0.0 4.8 0.00 0.00 0.00 62 1022.2
20260903082617 28 142 0.0 1.6 0.00 0.00 0.00 63 1022.1
20260903081612 27 135 0.0 4.8 0.00 0.00 0.00 64 1022.1
20260903080613 27 187 0.0 6.4 0.00 0.00 0.00 66 1022.1
20260903080117 26 140 0.0 6.4 0.00 0.00 0.00 65 1022.0
20260903075109 26 214 0.0 4.8 0.00 0.00 0.00 69 1022.0
20260903074609 25 261 0.0 4.8 0.00 0.00 0.00 70 1022.0
20260903074105 25 238 0.0 6.4 0.00 0.00 0.00 70 1022.0
20260903073102 25 255 0.0 8.0 0.00 0.00 0.00 71 1022.0
20260903072604 25 252 0.0 4.8 0.00 0.00 0.00 73 1022.0
20260903072103 24 264 0.0 4.8 0.00 0.00 0.00 73 1022.0
20260903071603 24 269 0.0 4.8 0.00 0.00 0.00 74 1021.9
20260903071105 23 281 0.0 4.8 0.00 0.00 0.00 75 1022.0
20260903070602 23 275 0.0 4.8 0.00 0.00 0.00 75 1022.0
20260903070111 23 279 0.0 6.4 0.00 0.00 0.00 78 1021.9
20260903065552 23 281 0.0 6.4 0.00 0.00 0.00 78 1022.0
20260903065045 22 281 0.0 1.6 0.00 0.00 0.00 79 1021.9
20260903064542 22 281 0.0 3.2 0.00 0.00 0.00 80 1021.9
20260903064037 22 282 0.0 3.2 0.00 0.00 0.00 81 1021.9
20260903063530 21 285 0.0 1.6 0.00 0.00 0.00 81 1021.9
20260903063024 21 288 0.0 4.8 0.00 0.00 0.00 83 1021.9
20260903062014 20 288 1.6 6.4 0.00 0.00 0.00 83 1021.9
20260903061005 20 275 0.0 6.4 0.00 0.00 0.00 84 1021.9
20260903060504 19 288 0.0 6.4 0.00 0.00 0.00 84 1022.0
20260903060005 19 278 0.0 6.4 0.00 0.00 0.00 84 1021.9
20260903055504 19 269 0.0 1.6 0.00 0.00 0.00 84 1021.9
20260903055005 18 272 0.0 1.6 0.00 0.00 0.00 85 1021.8
20260903054502 18 271 0.0 4.8 0.00 0.00 0.00 84 1021.8
20260903054005 18 271 0.0 4.8 0.00 0.00 0.00 84 1021.8
20260903053502 18 274 0.0 3.2 0.00 0.00 0.00 85 1021.8
20260903053002 18 274 0.0 3.2 0.00 0.00 0.00 86 1021.8
20260903052501 18 291 0.0 4.8 0.00 0.00 0.00 86 1021.8
20260903052001 18 276 0.0 4.8 0.00 0.00 0.00 86 1021.8
20260903051503 17 268 0.0 3.2 0.00 0.00 0.00 86 1021.7
20260903051001 17 266 0.0 1.6 0.00 0.00 0.00 86 1021.6
20260903050456 17 266 0.0 1.6 0.00 0.00 0.00 85 1021.6
20260903045457 17 268 0.0 4.8 0.00 0.00 0.00 85 1021.6
20260903045008 17 268 1.6 8.0 0.00 0.00 0.00 84 1021.6
20260903044459 17 271 1.6 8.0 0.00 0.00 0.00 84 1021.6
20260903043956 17 276 0.0 1.6 0.00 0.00 0.00 84 1021.6
20260903043455 18 272 0.0 0.0 0.00 0.00 0.00 84 1021.5
20260903042457 17 272 0.0 0.0 0.00 0.00 0.00 84 1021.5
20260903041454 18 271 0.0 4.8 0.00 0.00 0.00 83 1021.6
20260903040952 18 282 0.0 4.8 0.00 0.00 0.00 83 1021.6
20260903035954 18 262 0.0 0.0 0.00 0.00 0.00 82 1021.6
20260903035458 18 261 0.0 0.0 0.00 0.00 0.00 82 1021.7
20260903034953 18 261 0.0 0.0 0.00 0.00 0.00 82 1021.6
20260903034451 18 261 0.0 0.0 0.00 0.00 0.00 82 1021.5
20260903033953 18 261 0.0 0.0 0.00 0.00 0.00 82 1021.6
20260903033446 18 276 0.0 0.0 0.00 0.00 0.00 81 1021.6
20260903032941 18 276 0.0 0.0 0.00 0.00 0.00 81 1021.6
20260903032433 18 276 0.0 3.2 0.00 0.00 0.00 81 1021.6
20260903031929 18 279 0.0 3.2 0.00 0.00 0.00 81 1021.7
20260903030915 18 274 0.0 0.0 0.00 0.00 0.00 80 1021.6
20260903030422 18 274 0.0 3.2 0.00 0.00 0.00 80 1021.6
20260903025903 18 277 0.0 3.2 0.00 0.00 0.00 80 1021.6
20260903024851 18 270 1.6 4.8 0.00 0.00 0.00 79 1021.6
20260903024346 18 259 1.6 6.4 0.00 0.00 0.00 79 1021.6
20260903023839 18 276 0.0 6.4 0.00 0.00 0.00 78 1021.6
20260903023333 18 265 0.0 0.0 0.00 0.00 0.00 78 1021.6
20260903022827 18 265 0.0 0.0 0.00 0.00 0.00 78 1021.5
20260903022325 18 265 1.6 8.0 0.00 0.00 0.00 78 1021.7
20260903021815 18 265 1.6 8.0 0.00 0.00 0.00 77 1021.7
20260903020803 18 263 0.0 0.0 0.00 0.00 0.00 76 1021.8
20260903020257 18 262 0.0 0.0 0.00 0.00 0.00 76 1021.7
20260903015754 19 262 0.0 0.0 0.00 0.00 0.00 76 1021.8
20260903015255 19 262 0.0 0.0 0.00 0.00 0.00 75 1021.8
20260903014743 19 262 0.0 0.0 0.00 0.00 0.00 75 1021.7
20260903014237 19 263 0.0 0.0 0.00 0.00 0.00 75 1021.7
20260903013730 19 263 0.0 0.0 0.00 0.00 0.00 74 1021.7
20260903013221 19 263 0.0 3.2 0.00 0.00 0.00 74 1021.7
20260903012716 19 263 0.0 3.2 0.00 0.00 0.00 74 1021.7
20260903011703 19 270 0.0 4.8 0.00 0.00 0.00 73 1021.6
20260903011156 19 268 0.0 4.8 0.00 0.00 0.00 73 1021.6
20260903010655 20 274 0.0 9.7 0.00 0.00 0.00 73 1021.6
20260903010208 20 284 0.0 9.7 0.00 0.00 0.00 73 1021.7
20260903005656 20 285 0.0 1.6 0.00 0.00 0.00 73 1021.6
20260903005156 20 274 0.0 4.8 0.00 0.00 0.00 72 1021.8
20260903004653 20 276 0.0 4.8 0.00 0.00 0.00 71 1021.7
20260903004154 20 267 0.0 4.8 0.00 0.00 0.00 71 1021.7
20260903003651 20 213 0.0 0.0 0.00 0.00 0.00 71 1021.7
20260903003151 20 213 0.0 0.0 0.00 0.00 0.00 70 1021.7
20260903002147 21 291 0.0 0.0 0.00 0.00 0.00 68 1021.6
20260903001647 21 295 0.0 1.6 0.00 0.00 0.00 68 1021.7
20260903001149 21 295 0.0 1.6 0.00 0.00 0.00 68 1021.7
20260903000647 21 296 0.0 1.6 0.00 0.00 0.00 68 1021.7
20260903000147 21 296 0.0 1.6 0.00 0.00 0.00 67 1021.8
20260902235150 21 302 0.0 0.0 0.00 0.00 0.00 66 1021.8
20260902234152 22 303 0.0 0.0 0.00 0.00 0.00 65 1021.8
20260902233641 22 303 0.0 1.6 0.00 0.00 0.00 65 1021.8
20260902233139 22 303 0.0 1.6 0.00 0.00 0.00 65 1021.7
20260902232634 22 272 0.0 0.0 0.00 0.00 0.00 65 1021.7
20260902232128 22 273 0.0 0.0 0.00 0.00 0.00 64 1021.7
20260902231620 22 272 0.0 0.0 0.00 0.00 0.00 64 1021.6
20260902231114 23 275 0.0 0.0 0.00 0.00 0.00 62 1021.5
20260902230611 23 276 0.0 0.0 0.00 0.00 0.00 60 1021.5
20260902230105 23 276 0.0 0.0 0.00 0.00 0.00 60 1021.4
20260902225558 23 276 0.0 0.0 0.00 0.00 0.00 59 1021.5
20260902224546 23 276 0.0 0.0 0.00 0.00 0.00 59 1021.5
20260902224040 24 276 0.0 0.0 0.00 0.00 0.00 58 1021.5
20260902223026 24 276 0.0 1.6 0.00 0.00 0.00 58 1021.5
20260902222523 24 276 0.0 0.0 0.00 0.00 0.00 57 1021.5
20260902222021 24 276 0.0 0.0 0.00 0.00 0.00 57 1021.5
20260902221515 24 276 0.0 3.2 0.00 0.00 0.00 57 1021.5
20260902221015 25 276 0.0 4.8 0.00 0.00 0.00 56 1021.5
20260902220512 25 277 0.0 4.8 0.00 0.00 0.00 56 1021.5
20260902220015 25 324 0.0 1.6 0.00 0.00 0.00 56 1021.5
20260902215509 25 278 0.0 1.6 0.00 0.00 0.00 56 1021.6
20260902215007 25 276 0.0 1.6 0.00 0.00 0.00 56 1021.4
20260902214006 25 335 0.0 1.6 0.00 0.00 0.00 55 1021.4
20260902213518 25 338 0.0 1.6 0.00 0.00 0.00 55 1021.4
20260902212958 25 344 0.0 1.6 0.00 0.00 0.00 54 1021.4
20260902212501 25 281 0.0 1.6 0.00 0.00 0.00 54 1021.3
20260902211958 26 279 0.0 0.0 0.00 0.00 0.00 54 1021.3
20260902211453 26 279 0.0 0.0 0.00 0.00 0.00 53 1021.4
20260902211004 26 279 0.0 0.0 0.00 0.00 0.00 53 1021.4
20260902210452 26 279 0.0 0.0 0.00 0.00 0.00 52 1021.3
20260902205948 26 280 0.0 3.2 0.00 0.00 0.00 51 1021.2
20260902205446 26 280 0.0 8.0 0.00 0.00 0.00 51 1021.2
20260902204948 26 311 0.0 8.0 0.00 0.00 0.00 51 1021.2
20260902204446 26 298 0.0 4.8 0.00 0.00 0.00 51 1021.2
20260902203442 26 299 1.6 9.7 0.00 0.00 0.00 50 1021.2
20260902202940 26 0 1.6 14.5 0.00 0.00 0.00 50 1021.2
20260902202439 26 262 1.6 14.5 0.00 0.00 0.00 49 1021.2
20260902201932 26 281 1.6 12.9 0.00 0.00 0.00 50 1021.2
20260902201425 26 299 0.0 4.8 0.00 0.00 0.00 52 1021.2
20260902200931 26 285 0.0 4.8 0.00 0.00 0.00 51 1021.2
20260902200429 26 326 0.0 3.2 0.00 0.00 0.00 52 1021.2
20260902195927 26 316 0.0 4.8 0.00 0.00 0.00 53 1021.1
20260902195426 26 277 0.0 4.8 0.00 0.00 0.00 52 1021.1
20260902194925 26 273 0.0 3.2 0.00 0.00 0.00 52 1021.1
20260902194425 26 273 0.0 3.2 0.00 0.00 0.00 51 1021.2
20260902193929 27 272 0.0 0.0 0.00 0.00 0.00 51 1021.1
20260902193436 27 272 0.0 0.0 0.00 0.00 0.00 51 1021.1
20260902192417 27 276 0.0 1.6 0.00 0.00 0.00 51 1021.0
20260902191914 27 283 0.0 3.2 0.00 0.00 0.00 51 1021.0
20260902191412 27 281 0.0 3.2 0.00 0.00 0.00 51 1020.9
20260902190913 27 288 0.0 1.6 0.00 0.00 0.00 51 1020.8
20260902190412 27 290 0.0 0.0 0.00 0.00 0.00 52 1020.9
20260902185912 27 278 0.0 1.6 0.00 0.00 0.00 52 1020.8
20260902185411 27 278 0.0 1.6 0.00 0.00 0.00 52 1020.8
20260902184910 27 281 0.0 1.6 0.00 0.00 0.00 52 1020.8
20260902184407 27 282 0.0 0.0 0.00 0.00 0.00 52 1020.7
20260902183907 28 283 0.0 0.0 0.00 0.00 0.00 51 1020.6
20260902182400 28 293 0.0 0.0 0.00 0.00 0.00 50 1020.4
20260902181859 28 285 0.0 1.6 0.00 0.00 0.00 49 1020.3
20260902181358 29 283 0.0 1.6 0.00 0.00 0.00 48 1020.2
20260902180854 29 283 0.0 6.4 0.00 0.00 0.00 48 1020.2
20260902180406 29 283 0.0 6.4 0.00 0.00 0.00 47 1019.9
20260902175851 29 276 0.0 6.4 0.00 0.00 0.00 46 1019.8
20260902175349 30 276 0.0 0.0 0.00 0.00 0.00 46 1019.7
20260902174847 30 276 0.0 0.0 0.00 0.00 0.00 45 1019.6
20260902174347 30 276 0.0 1.6 0.00 0.00 0.00 44 1019.6
20260902172342 31 277 0.0 1.6 0.00 0.00 0.00 41 1019.6
20260902171838 32 277 0.0 1.6 0.00 0.00 0.00 40 1019.5
20260902171335 32 277 0.0 1.6 0.00 0.00 0.00 40 1019.5
20260902170836 32 277 0.0 4.8 0.00 0.00 0.00 40 1019.5
20260902165832 32 277 0.0 0.0 0.00 0.00 0.00 39 1019.4
20260902165333 32 278 1.6 11.3 0.00 0.00 0.00 39 1019.4
20260902163820 32 297 0.0 8.0 0.00 0.00 0.00 39 1019.6
20260902163320 32 255 0.0 8.0 0.00 0.00 0.00 39 1019.7
20260902162821 32 309 0.0 0.0 0.00 0.00 0.00 39 1019.7
20260902162323 32 300 0.0 0.0 0.00 0.00 0.00 38 1019.7
20260902161821 32 300 0.0 0.0 0.00 0.00 0.00 38 1019.7
20260902161321 32 302 0.0 1.6 0.00 0.00 0.00 37 1019.8
20260902160820 32 304 0.0 1.6 0.00 0.00 0.00 37 1019.8
20260902160320 32 300 0.0 8.0 0.00 0.00 0.00 36 1019.8
20260902155820 33 303 0.0 8.0 0.00 0.00 0.00 36 1019.9
20260902155319 33 265 0.0 3.2 0.00 0.00 0.00 35 1019.9
20260902154821 33 258 0.0 9.7 0.00 0.00 0.00 35 1019.8
20260902154318 33 319 0.0 9.7 0.00 0.00 0.00 33 1019.9
20260902153821 33 352 0.0 9.7 0.00 0.00 0.00 33 1020.0
20260902153318 33 1 0.0 9.7 0.00 0.00 0.00 33 1020.0
20260902152817 33 326 1.6 9.7 0.00 0.00 0.00 33 1020.0
20260902151812 33 266 1.6 12.9 0.00 0.00 0.00 32 1019.9
20260902151311 33 183 1.6 12.9 0.00 0.00 0.00 31 1019.8
20260902150811 33 274 1.6 11.3 0.00 0.00 0.00 33 1019.8
20260902150312 33 266 0.0 6.4 0.00 0.00 0.00 35 1019.8
20260902145812 33 265 1.6 11.3 0.00 0.00 0.00 33 1019.7